Regional Weather Roundup
Issued by NWS

Home | Current Version | Previous Version | Text Only | Print | Product List | Glossary On
Versions: 1 2 3 4 5 6 7 8 9 10 11 12 13 14 15 16 17 18 19 20 21 22 23 24 25 26 27 28 29 30 31 32 33 34 35 36 37 38 39 40 41 42 43 44 45 46 47 48 49 50
000
ASUS45 KPSR 011800
RWRAZ

ARIZONA HOURLY REGIONAL WEATHER ROUNDUP
NATIONAL WEATHER SERVICE PHOENIX AZ
1100 AM MST WED JUL 01 2015

NOTE: FAIR INDICATES FEW OR NO CLOUDS BELOW 12,000 FEET WITH NO
SIGNIFICANT WEATHER AND/OR OBSTRUCTIONS TO VISIBILITY.

AZZ001>003-036-011900-
NORTHWEST ARIZONA

CITY           SKY/WX    TMP DP  RH WIND       PRES   REMARKS
KINGMAN        SUNNY     89  56  32 W16G25    30.06F
6HR MIN TEMP:  73; 6HR MAX TEMP:  89;

$$

AZZ004>008-015-016-018-011900-
NORTH CENTRAL ARIZONA

CITY           SKY/WX    TMP DP  RH WIND       PRES   REMARKS
GRAND CANYON   SUNNY     80  55  42 VRB5      30.25F
6HR MIN TEMP:  55; 6HR MAX TEMP:  80;

WILLIAMS       SUNNY     77  54  44 CALM      30.34S
PRESCOTT       MOSUNNY   81  56  42 W10       30.17S
6HR MIN TEMP:  68; 6HR MAX TEMP:  81;

FLAGSTAFF      NOT AVBL
PAYSON         SUNNY     82  59  44 SW10G16   30.18S
PAGE           MOSUNNY   96  45  17 VRB6      30.02S
6HR MIN TEMP:  79; 6HR MAX TEMP:  96;

$$

AZZ009>014-017-011900-
NORTHEAST ARIZONA

CITY           SKY/WX    TMP DP  RH WIND       PRES   REMARKS
WINSLOW        NOT AVBL
SAINT JOHNS    SUNNY     85  50  29 SW8       30.16F
6HR MIN TEMP:  61; 6HR MAX TEMP:  85;

WINDOW ROCK    SUNNY     85  54  34 S10       30.24F
6HR MIN TEMP:  58; 6HR MAX TEMP:  85;

SHOW LOW       SUNNY     77  55  47 SW13      30.24F
$$

AZZ023-011900-
GREATER PHOENIX AREA

CITY           SKY/WX    TMP DP  RH WIND       PRES   REMARKS
PHOENIX        PTSUNNY   94  60  32 W3        29.90F
6HR MIN TEMP:  84; 6HR MAX TEMP:  96;

GLENDALE       PTSUNNY   95  61  31 SE6       29.91F
LUKE AFB       MOSUNNY   97  63  32 S13       29.88F
DEER VALLEY    SUNNY     91  61  36 CALM      29.91F
6HR MIN TEMP:  82; 6HR MAX TEMP:  92;

SCOTTSDALE     SUNNY     93  62  35 SW6       29.93F
6HR MIN TEMP:  82; 6HR MAX TEMP:  93;

MESA-GATEWAY   PTSUNNY   90  63  40 W7        29.95F
CHANDLER       PTSUNNY   91  63  38 W6        29.92F
$$

AZZ027-028-011900-
SOUTHWEST MARICOPA COUNTY AND PINAL COUNTY

CITY           SKY/WX    TMP DP  RH WIND       PRES   REMARKS
CASA GRANDE    PTSUNNY   90  61  37 W8        29.94S
6HR MIN TEMP:  79; 6HR MAX TEMP:  91;

$$

AZZ503-504-507>509-011900-
SOUTHEAST ARIZONA

CITY           SKY/WX    TMP DP  RH WIND       PRES   REMARKS
TUCSON         SUNNY     90  60  36 VRB7G17   30.02F
6HR MIN TEMP:  71; 6HR MAX TEMP:  90;

DAVIS-MONTHAN  PTSUNNY   87  62  42 W9        30.01F
6HR MIN TEMP:  71; 6HR MAX TEMP:  87;

RYAN FIELD     SUNNY     90  64  43 W3        30.02
NOGALES        MOSUNNY   83  63  50 S8        30.10S
6HR MIN TEMP:  67; 6HR MAX TEMP:  83;

SIERRA VISTA   MOSUNNY   82  61  49 VRB3      30.16S
6HR MIN TEMP:  67; 6HR MAX TEMP:  82;

SAFFORD        SUNNY     91  61  36 VRB5      30.01F
6HR MIN TEMP:  79; 6HR MAX TEMP:  91;

$$

AZZ020-021-025-026-031-011900-
SOUTHWEST ARIZONA

CITY           SKY/WX    TMP DP  RH WIND       PRES   REMARKS
YUMA           PTSUNNY   92  69  47 S12       29.90R
6HR MIN TEMP:  81; 6HR MAX TEMP:  92; 6HR PCP:  0.06;

$$

CAZ031-033-041-043-047-048-061-011900-
SOUTHERN CALIFORNIA

CITY           SKY/WX    TMP DP  RH WIND       PRES   REMARKS
DOWNTOWN L.A.  PTSUNNY   77  64  64 CALM      29.93S
6HR MIN TEMP:  69; 6HR MAX TEMP:  78;

L.A. AIRPORT   CLOUDY    70  63  78 W9        29.94S
6HR MIN TEMP:  67; 6HR MAX TEMP:  72; 6HR PCP: TRACE;

SAN DIEGO      CLOUDY    74  65  73 SW5       29.93F
BURBANK        PTSUNNY   83  58  42 SE6       29.94R
6HR MIN TEMP:  73; 6HR MAX TEMP:  83;

ONTARIO        PTSUNNY   86  51  29 W5        29.93F
6HR MIN TEMP:  72; 6HR MAX TEMP:  86;

RIVERSIDE      CLOUDY    85  58  39 VRB6      29.94S
6HR MIN TEMP:  70; 6HR MAX TEMP:  85;

PALM SPRINGS   CLOUDY    88  68  51 NW9       29.93R
6HR MIN TEMP:  85; 6HR MAX TEMP:  88; 6HR PCP: TRACE;

EL CENTRO NAS  CLOUDY    91  68  46 SE9       29.89R
6HR MIN TEMP:  84; 6HR MAX TEMP:  91; 6HR PCP: TRACE;

IMPERIAL       CLOUDY    91  71  51 SE12      29.87R
6HR MIN TEMP:  83; 6HR MAX TEMP:  91; 6HR PCP: TRACE;

BLYTHE         CLOUDY    82  75  79 S8        29.90R
6HR MIN TEMP:  80; 6HR MAX TEMP:  87; 6HR PCP:  0.16;

$$

NVZ020-UTZ003-011900-
SOUTHERN NEVADA-UTAH

CITY           SKY/WX    TMP DP  RH WIND       PRES   REMARKS
LAS VEGAS      NOT AVBL
SALT LAKE CITY MOSUNNY   91  53  27 NW7       30.08S
6HR MIN TEMP:  75; 6HR MAX TEMP:  92;

$$

NMZ009-TXZ055-011900-
NEW MEXICO-WEST TEXAS

CITY           SKY/WX    TMP DP  RH WIND       PRES   REMARKS
ALBUQUERQUE    MOSUNNY   83  48  29 S5        30.15F
6HR MIN TEMP:  71; 6HR MAX TEMP:  85;

EL PASO        MOSUNNY   88  53  30 VRB7      30.07F
6HR MIN TEMP:  71; 6HR MAX TEMP:  89;

$$


........................KEY........................
SKY/WX - SKY CONDITION/WEATHER
TMP    - TEMPERATURE IN FAHRENHEIT
DP     - DEW POINT IN FAHRENHEIT
RH     - RELATIVE HUMIDITY IN PERCENT
WIND   - DIRECTION AND SPEED IN MILES PER HOUR (MPH)
VRB    - VARIABLE WIND DIRECTION
PRES   - MEAN SEA LEVEL PRESSURE IN INCHES OF MERCURY
         F - FALLING PRESSURE   R - RISING PRESSURE
         S - STEADY PRESSURE
VSB    - VISIBILITY IN MILES
HX     - HEAT INDEX IN FAHRENHEIT
WCI    - WIND CHILL INDEX IN FAHRENHEIT
TC     - TEMPERATURE IN CELSIUS WHICH IS ALSO KNOWN AS
         TEMPERATURE IN CENTIGRADE
AFB    - AIR FORCE BASE
         LUKE AFB IS LUKE AIR FORCE BASE
         DAVIS-MONTHAN IS DAVIS-MONTHAN AIR FORCE BASE
NAS    - NAVAL AIR STATION
         EL CENTRO NAS IS EL CENTRO NAVAL AIR STATION
N/A    - NOT AVAILABLE



USA.gov is the U.S. government's official web portal to all federal, state and local government web resources and services.